York, PA

8:50 AM EST on December 08, 2019 (GMT -0500)
York

Weather History for KTHV - October, 2019

Change the Weather History Date:

Friday, October 4, 2019

  Actual Average Record
Temperature  
Mean Temperature 59 °F -  
Max Temperature 72 °F 0 °F 86 °F (2007)
Min Temperature 46 °F - 37 °F (2014)
Degree Days  
Heating Degree Days 6    
Growing Degree Days 9 (Base 50)    
Moisture  
Dew Point 53 °F    
Average Humidity 76    
Maximum Humidity 97    
Minimum Humidity 44    
Precipitation  
Precipitation 0.00 in - - ()
Sea Level Pressure  
Sea Level Pressure 30.10 in    
Wind  
Wind Speed 4 mph ()    
Max Wind Speed 16 mph    
Max Gust Speed 23 mph    
Visibility 6.4 miles    
Events Fog    
Averages and records for this station are not official NWS values.
T = Trace of Precipitation, MM = Missing Value Source: Averaged Metar Reports

Daily Weather History Graph

Daily Weather History Graph

Search for Another Location

Airport or City:

Astronomy

Oct. 04, 2019 Rise Set
Actual Time 7:06 AM EDT 6:45 PM EDT
Civil Twilight 6:39 AM EDT 7:12 PM EDT
Nautical Twilight 6:08 AM EDT 7:43 PM EDT
Astronomical Twilight 5:36 AM EDT 8:15 PM EDT
Moon 1:35 PM EDT (10/4) 11:12 PM EDT (10/4)
Length of Visible Light 12h 32m
Length of Day
11h 38m
Waxing Crescent, 39% of the Moon is Illuminated
Oct 4
Waxing Crescent
Oct 5
First Quarter
Oct 13
Full
Oct 21
Last Quarter
Oct 27
New

Hourly Weather History & Observations

Time (EDT) Temp. Windchill Dew Point Humidity Pressure Visibility Wind Dir Wind Speed Gust Speed Precip Events Conditions
12:37 AM 64.0 °F - 62.1 °F 93% 29.97 in 2.0 mi Calm Calm - N/A   Overcast
12:51 AM 64.4 °F - 62.6 °F 94% 29.97 in 1.8 mi North 3.5 mph - N/A   Overcast
12:53 AM 64.0 °F - 62.1 °F 93% 29.97 in 1.8 mi Calm Calm - N/A   Overcast
1:49 AM 62.6 °F - 60.8 °F 94% 29.97 in 2.0 mi North 3.5 mph - N/A   Overcast
1:53 AM 63.0 °F - 62.1 °F 97% 29.97 in 2.0 mi Calm Calm - N/A   Overcast
2:06 AM 63.0 °F - 62.1 °F 97% 29.97 in 2.5 mi Calm Calm - N/A   Overcast
2:22 AM 63.0 °F - 61.0 °F 93% 29.97 in 2.0 mi Calm Calm - N/A   Overcast
2:37 AM 63.0 °F - 61.0 °F 93% 29.97 in 1.5 mi North 3.5 mph - N/A   Overcast
2:50 AM 62.6 °F - 60.8 °F 94% 29.98 in 0.8 mi NW 3.5 mph - N/A   Overcast
2:51 AM 63.0 °F - 61.0 °F 93% 29.98 in 0.8 mi NW 4.6 mph - N/A   Overcast
3:30 AM 63.0 °F - 61.0 °F 93% 29.98 in 1.2 mi NNW 3.5 mph - N/A   Overcast
3:42 AM 62.1 °F - 61.0 °F 96% 29.98 in 0.8 mi NW 4.6 mph - N/A   Mist
3:53 AM 62.1 °F - 60.1 °F 93% 29.99 in 0.5 mi WNW 5.8 mph - N/A Fog Fog
4:24 AM 61.0 °F - 59.0 °F 93% 30.00 in 4.0 mi Variable 4.6 mph - N/A   Mostly Cloudy
4:35 AM 60.1 °F - 57.9 °F 93% 30.00 in 5.0 mi WNW 4.6 mph - N/A   Scattered Clouds
4:53 AM 59.0 °F - 57.0 °F 93% 30.01 in 6.0 mi West 3.5 mph - N/A   Clear
5:53 AM 57.0 °F - 55.0 °F 93% 30.04 in 9.0 mi Calm Calm - N/A   Clear
6:53 AM 57.9 °F - 54.0 °F 87% 30.06 in 10.0 mi Calm Calm - N/A   Clear
7:53 AM 60.1 °F - 53.1 °F 78% 30.07 in 10.0 mi NW 8.1 mph - N/A   Clear
8:53 AM 63.0 °F - 54.0 °F 72% 30.10 in 10.0 mi NW 9.2 mph - N/A   Clear
9:53 AM 66.0 °F - 53.1 °F 63% 30.12 in 10.0 mi NNW 10.4 mph - N/A   Clear
10:53 AM 68.0 °F - 48.9 °F 50% 30.12 in 10.0 mi NNW 10.4 mph 23.0 mph N/A   Partly Cloudy
11:53 AM 68.0 °F - 48.9 °F 50% 30.14 in 10.0 mi North 11.5 mph 19.6 mph N/A   Overcast
12:53 PM 68.0 °F - 48.0 °F 49% 30.15 in 10.0 mi North 16.1 mph 23.0 mph N/A   Mostly Cloudy
1:53 PM 69.1 °F - 48.0 °F 47% 30.16 in 10.0 mi North 12.7 mph 21.9 mph N/A   Partly Cloudy
2:53 PM 70.0 °F - 46.9 °F 44% 30.17 in 10.0 mi NNE 12.7 mph - N/A   Partly Cloudy
3:53 PM 68.0 °F - 46.0 °F 45% 30.17 in 10.0 mi North 11.5 mph 19.6 mph N/A   Clear
4:53 PM 64.9 °F - 44.1 °F 47% 30.20 in 10.0 mi North 15.0 mph - N/A   Clear
5:53 PM 60.1 °F - 42.1 °F 51% 30.23 in 10.0 mi NNE 12.7 mph 23.0 mph N/A   Clear
6:53 PM 55.0 °F - 39.0 °F 55% 30.27 in 10.0 mi NNE 10.4 mph 20.7 mph N/A   Clear
7:53 PM 52.0 °F - 37.9 °F 59% 30.29 in 10.0 mi NNE 9.2 mph - N/A   Clear
8:53 PM 50.0 °F - 37.9 °F 63% 30.32 in 10.0 mi NNE 4.6 mph - N/A   Clear
9:53 PM 48.0 °F - 37.0 °F 66% 30.34 in 10.0 mi North 4.6 mph - N/A   Clear
10:53 PM 48.0 °F - 37.0 °F 66% 30.35 in 10.0 mi North 4.6 mph - N/A   Clear
11:53 PM 46.0 °F 44.8 °F 37.0 °F 71% 30.37 in 10.0 mi North 3.5 mph - N/A   Clear